リニア彗星

C/2004 H1 ( LINEAR )

English version
Home page
Updated on May 9, 2004

---------------------------------------------------------------------

・ プロフィール

発見日 2004年4月16日
発見光度 19.2等
発見者 Lincoln Laboratory Near-Earth Asteroid Research project

・ 軌道要素

T 2004 Jan. 14.999 TT                                   MPC
q   2.07570              (2000.0)            P               Q
                   Peri.  290.249       -0.802195       -0.237233
                   Node   120.014       +0.177685       +0.781238
e   1.0            Incl.  140.746       -0.570010       +0.577397
>From 70 observations 2004 Apr. 16-30.

・ 星図

・ 光度変化

        m1 = -1.8 + 5 logΔ + 50 log r

---------------------------------------------------------------------

軌道要素はM.P.E.C. 2004-J11に掲載されたものです。
星図は StellaNavigator Ver.2.0 for Windows (アストロアーツ 編著 / アスキー出版局刊) で作成したものです。
光度グラフはComet for Windowsで作成したものです。

---------------------------------------------------------------------

Copyright(C) Seiichi Yoshida (comet@aerith.net). All rights reserved.